Location: Newark
(31.8769°N, 91.1411°W)
Time: 19:00:58
(UTC+00:00)

ISS - Visible Passes

Search period start: 19 January 2020 00:00
Search period end: 29 January 2020 00:00
Orbit: 415 x 421 km, 51.6° (Epoch: 20 January)

Date Brightness Start Highest point End Pass type
(mag) Time Alt. Az. Time Alt. Az. Time Alt. Az.
19 Jan -3.3 01:06:44 10° SW 01:09:50 58° WNW 01:09:50 58° WNW visible
20 Jan -3.7 00:18:47 10° SW 00:22:06 66° SE 00:24:17 20° NE visible
21 Jan -1.6 01:08:30 10° W 01:11:01 19° NW 01:11:36 19° NNW visible
22 Jan -2.3 00:19:51 10° WSW 00:22:55 32° NW 00:25:52 11° NNE visible
24 Jan -1.1 00:22:19 10° WNW 00:23:57 13° NNW 00:25:34 10° N visible
